When you browse on this site, cookies collect data to enhance your experience and personalize the content and advertising you see.
Visit our Privacy Policy to learn more. By continuing to use the site, you agree to this use of cookies and data.
  • In Hungary
  • List of Countries
  • For 7 days
  • Water Temperature
  • Satellite Maps
  • Weather Map
  • News
  • Weather Widgets
  • user-avatar
    Login

    Hourly Weather Buczkow

    Today, 27 May, Monday

    Time Temperature Precipitation Wind Pressure Humidity
    00:00 +14°C° 0 mm 3 mps 752 mmHg 79%
    01:00 +14°C° 0 mm 3 mps 752 mmHg 80%
    02:00 +14°C° 0 mm 3 mps 751 mmHg 81%
    03:00 +13°C° 0 mm 3 mps 751 mmHg 82%
    04:00 +13°C° 0 mm 3 mps 751 mmHg 83%
    05:00 +16°C° 0 mm 3 mps 751 mmHg 78%
    06:00 +17°C° 0 mm 4 mps 751 mmHg 73%
    07:00 +18°C° 0 mm 4 mps 751 mmHg 68%
    08:00 +20°C° 0 mm 4 mps 751 mmHg 63%
    09:00 +21°C° 0 mm 5 mps 751 mmHg 58%
    10:00 +23°C° 0 mm 5 mps 751 mmHg 53%
    11:00 +25°C° 0 mm 5 mps 751 mmHg 51%
    12:00 +25°C° 0 mm 5 mps 750 mmHg 48%
    13:00 +26°C° 0 mm 4 mps 750 mmHg 46%
    14:00 +26°C° 0 mm 4 mps 750 mmHg 46%
    15:00 +26°C° 0 mm 3 mps 750 mmHg 46%
    16:00 +26°C° 0 mm 3 mps 749 mmHg 47%
    17:00 +24°C° 0.1 mm 3 mps 749 mmHg 56%
    18:00 +23°C° 0.1 mm 2 mps 749 mmHg 65%
    19:00 +20°C° 0.1 mm 2 mps 749 mmHg 74%
    20:00 +19°C° 0 mm 2 mps 749 mmHg 79%
    21:00 +18°C° 0 mm 2 mps 749 mmHg 83%
    22:00 +17°C° 0 mm 2 mps 749 mmHg 87%
    23:00 +17°C° 0.1 mm 2 mps 748 mmHg 88%

    Tomorrow, 28 May, Tuesday

    Time Temperature Precipitation Wind Pressure Humidity
    00:00 +17°C° 0.1 mm 2 mps 748 mmHg 89%
    01:00 +18°C° 0.1 mm 1 mps 748 mmHg 90%
    02:00 +16°C° 1.1 mm 2 mps 748 mmHg 92%
    03:00 +16°C° 1.1 mm 2 mps 747 mmHg 93%
    04:00 +14°C° 1.1 mm 3 mps 747 mmHg 95%
    05:00 +14°C° 1.6 mm 3 mps 747 mmHg 95%
    06:00 +14°C° 1.6 mm 4 mps 747 mmHg 94%
    07:00 +13°C° 1.6 mm 4 mps 747 mmHg 94%
    08:00 +13°C° 0.8 mm 4 mps 748 mmHg 92%
    09:00 +13°C° 0.8 mm 4 mps 748 mmHg 90%
    10:00 +13°C° 0.8 mm 5 mps 748 mmHg 89%
    11:00 +13°C° 0.5 mm 4 mps 749 mmHg 86%
    12:00 +14°C° 0.5 mm 4 mps 749 mmHg 83%
    13:00 +14°C° 0.5 mm 3 mps 749 mmHg 79%
    14:00 +15°C° 0.4 mm 2 mps 749 mmHg 79%
    15:00 +15°C° 0.4 mm 2 mps 749 mmHg 78%
    16:00 +15°C° 0.4 mm 1 mps 749 mmHg 77%
    17:00 +15°C° 0.1 mm 1 mps 750 mmHg 79%
    18:00 +14°C° 0.1 mm 1 mps 750 mmHg 80%
    19:00 +14°C° 0.1 mm 2 mps 751 mmHg 81%
    20:00 +13°C° 0 mm 2 mps 751 mmHg 82%
    21:00 +12°C° 0 mm 2 mps 752 mmHg 83%
    22:00 +10°C° 0 mm 2 mps 753 mmHg 84%
    23:00 +9°C° 0 mm 2 mps 753 mmHg 85%

    Day after tomorrow, 29 May, Wednesday

    Time Temperature Precipitation Wind Pressure Humidity
    00:00 +9°C° 0 mm 2 mps 753 mmHg 85%
    01:00 +8°C° 0 mm 2 mps 754 mmHg 85%
    02:00 +8°C° 0 mm 2 mps 754 mmHg 85%
    03:00 +8°C° 0 mm 2 mps 754 mmHg 85%
    04:00 +9°C° 0 mm 1 mps 755 mmHg 85%
    05:00 +9°C° 0 mm 2 mps 755 mmHg 80%
    06:00 +10°C° 0 mm 2 mps 756 mmHg 75%
    07:00 +12°C° 0 mm 2 mps 756 mmHg 71%
    08:00 +13°C° 0 mm 2 mps 757 mmHg 64%
    09:00 +14°C° 0 mm 2 mps 757 mmHg 58%
    10:00 +16°C° 0 mm 2 mps 757 mmHg 51%
    11:00 +16°C° 0 mm 2 mps 757 mmHg 49%
    12:00 +17°C° 0 mm 2 mps 757 mmHg 46%
    13:00 +18°C° 0 mm 2 mps 757 mmHg 43%
    14:00 +19°C° 0 mm 2 mps 757 mmHg 43%
    15:00 +19°C° 0 mm 2 mps 757 mmHg 42%
    16:00 +19°C° 0 mm 2 mps 757 mmHg 42%
    17:00 +18°C° 0 mm 2 mps 757 mmHg 49%
    18:00 +17°C° 0 mm 2 mps 757 mmHg 55%
    19:00 +16°C° 0 mm 1 mps 757 mmHg 62%
    20:00 +14°C° 0 mm 1 mps 758 mmHg 65%
    21:00 +13°C° 0 mm 1 mps 758 mmHg 69%
    22:00 +12°C° 0 mm 1 mps 759 mmHg 73%
    23:00 +11°C° 0 mm 1 mps 759 mmHg 76%

    30 May, Thursday

    Time Temperature Precipitation Wind Pressure Humidity
    00:00 +10°C° 0 mm 1 mps 759 mmHg 80%
    01:00 +10°C° 0 mm 1 mps 759 mmHg 83%
    02:00 +9°C° 0 mm 1 mps 759 mmHg 84%
    03:00 +9°C° 0 mm 1 mps 759 mmHg 85%
    04:00 +9°C° 0 mm 1 mps 758 mmHg 87%
    05:00 +11°C° 0 mm 1 mps 759 mmHg 80%
    06:00 +13°C° 0 mm 2 mps 759 mmHg 74%
    07:00 +15°C° 0 mm 2 mps 759 mmHg 68%
    08:00 +16°C° 0 mm 2 mps 759 mmHg 61%
    09:00 +18°C° 0 mm 2 mps 758 mmHg 55%
    10:00 +20°C° 0 mm 3 mps 758 mmHg 49%
    11:00 +20°C° 0 mm 3 mps 758 mmHg 47%
    12:00 +21°C° 0 mm 3 mps 758 mmHg 45%
    13:00 +22°C° 0 mm 3 mps 757 mmHg 43%
    14:00 +21°C° 0 mm 3 mps 757 mmHg 48%
    15:00 +21°C° 0 mm 3 mps 757 mmHg 53%
    16:00 +20°C° 0 mm 2 mps 757 mmHg 57%
    17:00 +19°C° 0.1 mm 2 mps 756 mmHg 64%
    18:00 +18°C° 0.1 mm 2 mps 756 mmHg 71%
    19:00 +18°C° 0.1 mm 1 mps 756 mmHg 78%
    20:00 +17°C° 0.2 mm 2 mps 756 mmHg 82%
    21:00 +16°C° 0.2 mm 2 mps 756 mmHg 86%
    22:00 +14°C° 0.2 mm 3 mps 756 mmHg 89%
    23:00 +14°C° 0 mm 3 mps 756 mmHg 91%

    31 May, Friday

    Time Temperature Precipitation Wind Pressure Humidity
    00:00 +13°C° 0 mm 3 mps 756 mmHg 93%
    01:00 +13°C° 0 mm 3 mps 755 mmHg 95%
    02:00 +13°C° 0 mm 3 mps 755 mmHg 95%
    03:00 +12°C° 0 mm 3 mps 754 mmHg 95%
    04:00 +12°C° 0 mm 3 mps 754 mmHg 95%
    05:00 +13°C° 0.1 mm 4 mps 753 mmHg 93%
    06:00 +14°C° 0.1 mm 4 mps 753 mmHg 91%
    07:00 +15°C° 0.1 mm 4 mps 753 mmHg 89%
    08:00 +14°C° 0.7 mm 6 mps 754 mmHg 89%
    09:00 +12°C° 0.7 mm 8 mps 754 mmHg 89%
    10:00 +9°C° 0.7 mm 10 mps 755 mmHg 88%
    11:00 +10°C° 0.7 mm 9 mps 756 mmHg 85%
    12:00 +9°C° 0.7 mm 7 mps 758 mmHg 81%
    13:00 +9°C° 0.7 mm 6 mps 759 mmHg 78%
    14:00 +10°C° 0 mm 7 mps 760 mmHg 65%
    15:00 +12°C° 0 mm 7 mps 760 mmHg 53%
    16:00 +14°C° 0 mm 7 mps 761 mmHg 40%
    17:00 +14°C° 0 mm 6 mps 762 mmHg 46%
    18:00 +13°C° 0 mm 5 mps 762 mmHg 52%
    19:00 +12°C° 0 mm 4 mps 762 mmHg 58%
    20:00 +11°C° 0 mm 4 mps 763 mmHg 62%
    21:00 +10°C° 0 mm 3 mps 763 mmHg 66%
    22:00 +8°C° 0 mm 3 mps 764 mmHg 71%
    23:00 +8°C° 0 mm 3 mps 764 mmHg 74%

    1 June, Saturday

    Time Temperature Precipitation Wind Pressure Humidity
    00:00 +7°C° 0 mm 3 mps 764 mmHg 77%
    01:00 +7°C° 0 mm 3 mps 765 mmHg 80%
    02:00 +5°C° 0 mm 3 mps 765 mmHg 82%
    03:00 +5°C° 0 mm 3 mps 765 mmHg 83%
    04:00 +5°C° 0 mm 3 mps 766 mmHg 85%
    05:00 +7°C° 0 mm 3 mps 766 mmHg 80%
    06:00 +7°C° 0 mm 4 mps 766 mmHg 74%
    07:00 +10°C° 0 mm 4 mps 766 mmHg 69%
    08:00 +10°C° 0 mm 4 mps 766 mmHg 66%
    09:00 +10°C° 0 mm 4 mps 766 mmHg 62%
    10:00 +11°C° 0 mm 3 mps 767 mmHg 59%
    11:00 +11°C° 0 mm 3 mps 766 mmHg 57%
    12:00 +12°C° 0 mm 3 mps 766 mmHg 54%
    13:00 +13°C° 0 mm 3 mps 766 mmHg 52%
    14:00 +14°C° 0 mm 3 mps 766 mmHg 49%
    15:00 +16°C° 0 mm 3 mps 766 mmHg 47%
    16:00 +17°C° 0 mm 3 mps 766 mmHg 44%
    17:00 +16°C° 0 mm 2 mps 766 mmHg 50%
    18:00 +15°C° 0 mm 2 mps 766 mmHg 56%
    19:00 +14°C° 0 mm 1 mps 766 mmHg 61%
    20:00 +12°C° 0 mm 1 mps 766 mmHg 66%
    21:00 +11°C° 0 mm 1 mps 767 mmHg 71%
    22:00 +9°C° 0 mm 1 mps 767 mmHg 76%
    23:00 +9°C° 0 mm 1 mps 767 mmHg 78%
    Show more